TABS, Texas Automated Buoy System, NOAA HAZMAT, Ocean Observatory, Real Time Oceanographic Data Supporting Oil Spill Prevention and Response

Texas General Land Office  Texas General
 Land Office
 Oil Spill Prevention
 & Response
Texas Automated Buoy System
Real Time Ocean Observations
Supporting Oil Spill Prevention and Response since 1995
Geochemical and Environmental Research Group

TABS Buoy J -- Texas Automated Buoy System

TABS Buoy J Conditions at 09/17/2014 20:00 UTC (09/17/2014 15:00 CDT)
26° 11.4840'N   97° 3.0420'W
AA3900 DCS - sensor depth 2m
Anemometer height: 4m
Water Depth: 68 feet (20 meters)
Speed: 19.29 cm/s (0.38 kts) Direction: 313 °T (NW) Water Temp: 29°C (84 °F)
System Voltage: 12.7 V Signal Strength: -1.9 dB Ping Count: 132
Wind: 5.7 m/s (11.1 kts)
          From 166°T (SSE)
Air Temp: 28 °C (83 °F)
Relative Humidity:  N/A
Pressure: 1011.7 mb (29.88 inHg)

  


IMPORTANT: Notice to Mariners


Today's System Data (download)

   Date   |  Time  | VBatt |  SigStr| Comp | Nping| Tx | Ty | ADCP | ADCP | VBatt |
          |  (UTC) | (Oper)|   (dB) | (°M) |      |    |    | Volt | Curr |(sleep)|
==========+========+=======+========+======+======+====+====+======+======+=======+
09/17/2014 00:00:00    12.4   -1.88   175.3    139    3    -3    5.0    2.0   -0.1
09/17/2014 00:30:00    12.3   -1.84   177.1    142    3    -3    4.0    2.0   -0.1
09/17/2014 01:00:00    12.3   -1.82   172.2    126    3    -3    5.0    3.0   -0.1
09/17/2014 01:30:00    12.3   -1.80   170.7    144    3    -3    5.0    3.0   -0.1
09/17/2014 02:00:00    12.3   -1.82   175.7    129    3    -3    5.0    3.0   -0.1
09/17/2014 02:30:00    12.3   -1.83   172.0    147    3    -3    5.0    3.0   -0.1
09/17/2014 03:00:00    12.3   -1.81   176.1    137    3    -3    4.0    3.0   -0.1
09/17/2014 03:30:00    12.3   -1.81   172.7    130    3    -4    5.0    3.0   -0.1
09/17/2014 04:00:00    12.2   -1.79   173.1    125    3    -3    4.0    2.0   -0.1
09/17/2014 04:30:00    12.2   -1.86   176.6    127    3    -3    4.0    2.0   -0.1
09/17/2014 05:00:00    12.2   -1.81   181.8    131    3    -3    4.0    2.0   -0.1
09/17/2014 05:30:00    12.2   -1.83   182.7    134    3    -2    4.0    2.0   -0.1
09/17/2014 06:00:00    12.2   -1.81   180.6    132    3    -3    4.0    2.0   -0.1
09/17/2014 06:30:00    12.2   -1.84   181.1    118    3    -3    4.0    2.0   -0.1
09/17/2014 07:00:00    12.2   -1.84   182.8    134    3    -3    5.0    3.0   -0.1
09/17/2014 07:30:00    12.2   -1.84   183.0    119    3    -3    4.0    3.0   -0.1
09/17/2014 08:00:00    12.2   -1.82   183.0    137    4    -2    5.0    2.0   -0.1
09/17/2014 08:30:00    12.1   -1.82   184.8    134    4    -2    5.0    3.0   -0.1
09/17/2014 09:00:00    12.2   -1.84   192.1    126    4    -2    5.0    3.0   -0.1
09/17/2014 09:30:00    12.1   -1.81   193.1    134    4    -2    5.0    2.0   -0.1
09/17/2014 10:00:00    12.1   -1.80   192.0    133    4    -2    4.0    2.0   -0.1
09/17/2014 10:30:00    12.1   -1.84   193.3    132    4    -1    4.0    2.0   -0.1
09/17/2014 11:00:00    12.1   -1.79   196.4    135    4    -2    4.0    2.0   -0.1
09/17/2014 11:30:00    12.1   -1.81   195.8    135    4    -1    4.0    2.0   -0.1
09/17/2014 12:00:00    12.1   -1.83   196.5    128    3    -1    4.0    2.0   -0.1
09/17/2014 12:30:00    12.1   -1.82   195.6    128    4    -1    4.0    2.0   -0.1
09/17/2014 13:00:00    12.2   -1.85   203.4    146    4    -1    4.0    2.0   -0.1
09/17/2014 13:30:00    12.2   -1.84   201.0    121    4    -1    4.0    2.0   -0.1
09/17/2014 14:00:00    12.4   -1.83   195.2    134    3    -1    4.0    2.0   -0.1
09/17/2014 14:30:00    12.4   -1.83   205.9    143    3    -1    4.0    2.0   -0.1
09/17/2014 15:00:00    12.6   -1.89   200.1    130    3    -1    4.0    2.0   -0.1
09/17/2014 15:30:00    12.6   -1.88   206.2    138    4    -1    4.0    2.0   -0.1
09/17/2014 16:00:00    12.6   -1.90   199.0    131    4    -1    4.0    2.0   -0.1
09/17/2014 16:30:00    12.6   -1.89   194.4    137    4    -1    4.0    2.0   -0.1
09/17/2014 17:00:00    12.6   -1.91   194.1    137    4    -2    4.0    2.0   -0.1
09/17/2014 17:30:00    12.6   -1.98   193.2    133    4    -1    4.0    2.0   -0.1
09/17/2014 18:00:00    12.6   -1.98   190.9    140    4    -2    4.0    2.0   -0.1
09/17/2014 18:30:00    12.6   -1.98   192.1    137    4    -2    4.0    2.0   -0.1
09/17/2014 19:00:00    12.6   -1.99   194.4    132    4    -1    4.0    2.0   -0.1
09/17/2014 19:30:00    12.6   -1.90   193.1    133    4    -1    5.0    2.0   -0.1
09/17/2014 20:00:00    12.7   -1.85   185.7    132    4    -2    5.0    2.0   -0.1